H1 CPF 2 NER 2020 12 16 9 351 01 glonass134 H2 1407501 9134 40315 2020 12 16 0 0 0 2020 12 19 23 45 0 900 1 1 0 0 0 1 H9 10 0 59199 0.00000 0 -16393788.741 -7557164.342 18069392.193 10 0 59199 900.00000 0 -14069629.925 -7762717.791 19849612.766 10 0 59199 1800.00000 0 -11573521.927 -8168049.371 21245694.611 10 0 59199 2700.00000 0 -8970073.539 -8785346.326 22230470.952 10 0 59199 3600.00000 0 -6326357.797 -9614925.008 22784690.294 10 0 59199 4500.00000 0 -3709342.204 -10645064.534 22897398.737 10 0 59199 5400.00000 0 -1183329.348 -11852358.458 22566166.614 10 0 59199 6300.00000 0 1192487.347 -13202572.308 21797154.092 10 0 59199 7200.00000 0 3366252.227 -14651973.530 20605013.094 10 0 59199 8100.00000 0 5295368.294 -16149080.719 19012625.688 10 0 59199 9000.00000 0 6948030.455 -17636761.097 17050682.075 10 0 59199 9900.00000 0 8304306.767 -19054589.991 14757104.414 10 0 59199 10800.00000 0 9356721.856 -20341374.372 12176325.865 10 0 59199 11700.00000 0 10110317.302 -21437734.680 9358437.330 10 0 59199 12600.00000 0 10582185.795 -22288635.842 6358217.646 10 0 59199 13500.00000 0 10800498.230 -22845759.612 3234065.623 10 0 59199 14400.00000 0 10803064.790 -23069616.429 46854.998 10 0 59199 15300.00000 0 10635491.375 -22931305.561 -3141264.398 10 0 59199 16200.00000 0 10349010.450 -22413847.044 -6268094.555 10 0 59199 17100.00000 0 9998079.831 -21513027.123 -9272620.543 10 0 59199 18000.00000 0 9637853.093 -20237719.872 -12096219.056 10 0 59199 18900.00000 0 9321631.032 -18609670.304 -14683818.760 10 0 59199 19800.00000 0 9098404.370 -16662747.566 -16984988.109 10 0 59199 20700.00000 0 9010593.740 -14441699.804 -18954927.956 10 0 59199 21600.00000 0 9092084.178 -12000463.551 -20555348.835 10 0 59199 22500.00000 0 9366638.285 -9400099.439 -21755215.490 10 0 59199 23400.00000 0 9846755.523 -6706441.790 -22531344.340 10 0 59199 24300.00000 0 10533025.671 -3987561.193 -22868843.018 10 0 59199 25200.00000 0 11414003.102 -1311146.620 -22761384.520 10 0 59199 26100.00000 0 12466606.178 1258083.602 -22211311.980 10 0 59199 27000.00000 0 13657023.833 3660834.580 -21229573.543 10 0 59199 27900.00000 0 14942090.041 5845450.434 -19835490.060 10 0 59199 28800.00000 0 16271067.352 7769802.030 -18056361.509 10 0 59199 29700.00000 0 17587763.782 9402770.575 -15926920.987 10 0 59199 30600.00000 0 18832893.747 10725267.883 -13488647.784 10 0 59199 31500.00000 0 19946583.783 11730753.575 -10788953.630 10 0 59199 32400.00000 0 20870918.204 12425230.550 -7880258.302 10 0 59199 33300.00000 0 21552418.465 12826721.683 -4818972.666 10 0 59199 34200.00000 0 21944353.013 12964252.026 -1664408.850 10 0 59199 35100.00000 0 22008781.746 12876381.164 1522361.667 10 0 59199 36000.00000 0 21718250.297 12609348.697 4679680.525 10 0 59199 36900.00000 0 21057064.020 12214911.507 7746483.466 10 0 59199 37800.00000 0 20022088.906 11747963.918 10663467.943 10 0 59199 38700.00000 0 18623046.113 11264040.516 13374225.915 10 0 59199 39600.00000 0 16882287.594 10816805.942 15826321.003 10 0 59199 40500.00000 0 14834061.414 10455636.329 17972290.492 10 0 59199 41400.00000 0 12523296.100 10223393.185 19770554.013 10 0 59199 42300.00000 0 10003952.981 10154482.517 21186212.321 10 0 59199 43200.00000 0 7337012.949 10273280.409 22191721.604 10 0 59199 44100.00000 0 4588178.955 10592991.307 22767430.741 10 0 59199 45000.00000 0 1825387.391 11114987.635 22901971.117 10 0 59199 45900.00000 0 -883770.605 11828659.814 22592491.073 10 0 59199 46800.00000 0 -3474612.809 12711784.749 21844729.494 10 0 59199 47700.00000 0 -5887809.470 13731399.568 20672925.763 10 0 59199 48600.00000 0 -8071606.158 14845146.208 19099566.117 10 0 59199 49500.00000 0 -9983733.812 16003032.708 17154969.362 10 0 59199 50400.00000 0 -11592926.132 17149539.027 14876718.067 10 0 59199 51300.00000 0 -12879980.453 18225980.223 12308944.429 10 0 59199 52200.00000 0 -13838316.923 19173028.104 9501483.184 10 0 59199 53100.00000 0 -14474011.666 19933284.966 6508907.075 10 0 59199 54000.00000 0 -14805301.906 20453799.876 3389463.239 10 0 59199 54900.00000 0 -14861583.625 20688419.748 203931.416 10 0 59199 55800.00000 0 -14681944.144 20599873.725 -2985572.849 10 0 59199 56700.00000 0 -14313292.465 20161500.544 -6116825.310 10 0 59199 57600.00000 0 -13808167.776 19358543.580 -9128724.730 10 0 59199 58500.00000 0 -13222320.601 18188956.834 -11962503.144 10 0 59199 59400.00000 0 -12612171.086 16663686.234 -14562889.158 10 0 59199 60300.00000 0 -12032254.179 14806413.337 -16879199.851 10 0 59199 61200.00000 0 -11532761.853 12652771.829 -18866338.544 10 0 59199 62100.00000 0 -11157287.992 10249069.887 -20485678.160 10 0 59199 63000.00000 0 -10940872.400 7650572.472 -21705812.602 10 0 59199 63900.00000 0 -10908427.118 4919416.436 -22503161.706 10 0 59199 64800.00000 0 -11073611.326 2122246.381 -22862418.687 10 0 59199 65700.00000 0 -11438201.652 -672329.368 -22776832.499 10 0 59199 66600.00000 0 -11991983.258 -3396356.195 -22248320.912 10 0 59199 67500.00000 0 -12713164.905 -5985115.213 -21287413.638 10 0 59199 68400.00000 0 -13569298.981 -8379563.166 -19913028.091 10 0 59199 69300.00000 0 -14518666.332 -10528529.909 -18152083.518 10 0 59199 70200.00000 0 -15512066.368 -12390583.942 -16038962.245 10 0 59199 71100.00000 0 -16494936.285 -13935490.643 -13614829.382 10 0 59199 72000.00000 0 -17409709.719 -15145205.014 -10926825.002 10 0 59199 72900.00000 0 -18198315.559 -16014360.314 -8027144.844 10 0 59199 73800.00000 0 -18804712.134 -16550234.930 -4972027.532 10 0 59199 74700.00000 0 -19177350.812 -16772201.317 -1820667.931 10 0 59199 75600.00000 0 -19271466.282 -16710682.243 1365922.638 10 0 59199 76500.00000 0 -19051098.160 -16405659.725 4526087.833 10 0 59199 77400.00000 0 -18490759.879 -15904800.216 7598707.328 10 0 59199 78300.00000 0 -17576685.452 -15261275.242 10524365.582 10 0 59199 79200.00000 0 -16307602.137 -14531368.906 13246486.837 10 0 59199 80100.00000 0 -14694996.481 -13771972.169 15712415.502 10 0 59199 81000.00000 0 -12762861.987 -13038068.292 17874422.309 10 0 59199 81900.00000 0 -10546937.619 -12380313.972 19690618.035 10 0 59199 82800.00000 0 -8093467.276 -11842816.724 21125758.100 10 0 59199 83700.00000 0 -5457529.660 -11461201.019 22151923.353 10 0 59199 84600.00000 0 -2701005.505 -11261043.910 22749064.387 10 0 59199 85500.00000 0 109735.840 -11256745.891 22905398.856 10 0 59200 0.00000 0 2906336.991 -11450884.986 22617653.749 10 0 59200 900.00000 0 5621038.785 -11834082.672 21891146.925 10 0 59200 1800.00000 0 8189246.522 -12385388.043 20739705.232 10 0 59200 2700.00000 0 10551970.618 -13073167.497 19185418.731 10 0 59200 3600.00000 0 12658041.507 -13856463.051 17258234.188 10 0 59200 4500.00000 0 14466005.811 -14686765.009 14995393.590 10 0 59200 5400.00000 0 15945624.622 -15510125.351 12440726.813 10 0 59200 6300.00000 0 17078910.402 -16269523.770 9643810.650 10 0 59200 7200.00000 0 17860658.028 -16907386.624 6659009.593 10 0 59200 8100.00000 0 18298446.820 -17368151.813 3544416.578 10 0 59200 9000.00000 0 18412112.794 -17600769.814 360714.472 10 0 59200 9900.00000 0 18232713.157 -17561033.189 -2830018.589 10 0 59200 10800.00000 0 17801027.170 -17213633.770 -5965535.364 10 0 59200 11700.00000 0 17165657.571 -16533858.046 -8984651.597 10 0 59200 12600.00000 0 16380814.287 -15508846.764 -11828457.908 10 0 59200 13500.00000 0 15503876.018 -14138363.570 -14441485.955 10 0 59200 14400.00000 0 14592834.820 -12435038.696 -16772804.369 10 0 59200 15300.00000 0 13703733.796 -10424076.571 -18777021.619 10 0 59200 16200.00000 0 12888207.858 -8142439.287 -20415175.385 10 0 59200 17100.00000 0 12191232.758 -5637540.332 -21655490.754 10 0 59200 18000.00000 0 11649178.015 -2965503.926 -22473992.595 10 0 59200 18900.00000 0 11288245.900 -189063.456 -22854960.908 10 0 59200 19800.00000 0 11123361.590 2624812.586 -22791221.360 10 0 59200 20700.00000 0 11157560.058 5407467.563 -22284266.676 10 0 59200 21600.00000 0 11381893.867 8091170.443 -21344208.046 10 0 59200 22500.00000 0 11775863.908 10611687.898 -19989558.957 10 0 59200 23400.00000 0 12308353.066 12910708.591 -18246857.075 10 0 59200 24300.00000 0 12939021.774 14938020.271 -16150132.730 10 0 59200 25200.00000 0 13620105.269 16653350.986 -13740235.286 10 0 59200 26100.00000 0 14298535.863 18027799.976 -11064031.242 10 0 59200 27000.00000 0 14918300.283 19044801.129 -8173490.053 10 0 59200 27900.00000 0 15422932.689 19700581.404 -5124675.553 10 0 59200 28800.00000 0 15758038.684 20004097.468 -1976662.544 10 0 59200 29700.00000 0 15873744.624 19976455.451 1209600.788 10 0 59200 30600.00000 0 15726969.913 19649839.835 4372463.185 10 0 59200 31500.00000 0 15283427.522 19065997.632 7450751.318 10 0 59200 32400.00000 0 14519269.295 18274342.054 10384939.633 10 0 59200 33300.00000 0 13422307.356 17329755.336 13118287.487 10 0 59200 34200.00000 0 11992760.390 16290182.402 15597922.709 10 0 59200 35100.00000 0 10243493.001 15214115.523 17775851.904 10 0 59200 36000.00000 0 8199737.034 14158074.293 19609879.187 10 0 59200 36900.00000 0 5898304.881 13174185.432 21064416.574 10 0 59200 37800.00000 0 3386325.420 12307962.699 22111171.251 10 0 59200 38700.00000 0 719552.657 11596379.141 22729696.901 10 0 59200 39600.00000 0 -2039685.231 11066312.004 22907798.484 10 0 59200 40500.00000 0 -4824813.996 10733425.538 22641782.272 10 0 59200 41400.00000 0 -7567524.451 10601539.119 21936545.415 10 0 59200 42300.00000 0 -10200364.374 10662508.271 20805501.959 10 0 59200 43200.00000 0 -12659305.170 10896625.040 19270345.123 10 0 59200 44100.00000 0 -14886177.529 11273522.538 17360648.473 10 0 59200 45000.00000 0 -16830874.883 11753547.273 15113311.816 10 0 59200 45900.00000 0 -18453232.524 12289542.876 12571860.736 10 0 59200 46800.00000 0 -19724503.090 12828970.954 9785611.824 10 0 59200 47700.00000 0 -20628365.503 13316279.907 6808718.824 10 0 59200 48600.00000 0 -21161423.938 13695421.203 3699117.806 10 0 59200 49500.00000 0 -21333174.840 13912405.628 517391.999 10 0 59200 50400.00000 0 -21165442.712 13917789.583 -2674420.681 10 0 59200 51300.00000 0 -20691308.341 13668983.983 -5814052.873 10 0 59200 52200.00000 0 -19953575.166 13132285.552 -8840240.179 10 0 59200 53100.00000 0 -19002839.585 12284542.089 -11693934.646 10 0 59200 54000.00000 0 -17895248.246 11114379.025 -14319473.736 10 0 59200 54900.00000 0 -16690038.933 9622933.594 -16665680.226 10 0 59200 55800.00000 0 -15446970.802 7824064.315 -18686870.098 10 0 59200 56700.00000 0 -14223754.264 5744026.227 -20343747.864 10 0 59200 57600.00000 0 -13073590.283 3420625.242 -21604171.526 10 0 59200 58500.00000 0 -12042923.702 901887.381 -22443772.343 10 0 59200 59400.00000 0 -11169505.412 -1755700.897 -22846418.057 10 0 59200 60300.00000 0 -10480844.353 -4489307.132 -22804511.604 10 0 59200 61200.00000 0 -9993113.376 -7232133.193 -22319120.814 10 0 59200 62100.00000 0 -9710553.212 -9915962.002 -21399938.097 10 0 59200 63000.00000 0 -9625397.548 -12473764.689 -20065072.365 10 0 59200 63900.00000 0 -9718320.119 -14842260.112 -18340678.678 10 0 59200 64800.00000 0 -9959382.800 -16964321.290 -16260434.022 10 0 59200 65700.00000 0 -10309442.811 -18791130.092 -13864870.386 10 0 59200 66600.00000 0 -10721958.201 -20283992.288 -11200578.838 10 0 59200 67500.00000 0 -11145114.419 -21415739.530 -8319300.524 10 0 59200 68400.00000 0 -11524181.752 -22171662.130 -5276922.338 10 0 59200 69300.00000 0 -11804004.122 -22549935.934 -2132396.778 10 0 59200 70200.00000 0 -11931514.654 -22561527.626 1053393.435 10 0 59200 71100.00000 0 -11858172.549 -22229584.209 4218804.529 10 0 59200 72000.00000 0 -11542219.363 -21588333.555 7302612.666 10 0 59200 72900.00000 0 -10950660.412 -20681542.911 10245184.831 10 0 59200 73800.00000 0 -10060888.508 -19560600.161 12989618.094 10 0 59200 74700.00000 0 -8861881.983 -18282297.964 15482826.283 10 0 59200 75600.00000 0 -7354926.473 -16906412.806 17676554.370 10 0 59200 76500.00000 0 -5553829.336 -15493179.218 19528302.146 10 0 59200 77400.00000 0 -3484616.342 -14100763.591 21002140.346 10 0 59200 78300.00000 0 -1184721.277 -12782841.964 22069404.330 10 0 59200 79200.00000 0 1298300.226 -11586381.885 22709252.393 10 0 59200 80100.00000 0 3908481.793 -10549720.308 22909077.987 10 0 59200 81000.00000 0 6583514.048 -9701017.435 22664767.530 10 0 59200 81900.00000 0 9257085.859 -9057151.254 21980797.934 10 0 59200 82800.00000 0 11861404.110 -8623099.615 20870170.663 10 0 59200 83700.00000 0 14329789.238 -8391836.679 19354181.945 10 0 59200 84600.00000 0 16599239.889 -8344749.303 17462031.683 10 0 59200 85500.00000 0 18612860.355 -8452557.273 15230276.694 10 0 59201 0.00000 0 20322049.562 -8676699.861 12702137.149 10 0 59201 900.00000 0 21688359.244 -8971131.218 9926667.710 10 0 59201 1800.00000 0 22684943.043 -9284449.358 6957809.424 10 0 59201 2700.00000 0 23297533.104 -9562268.393 3853339.063 10 0 59201 3600.00000 0 23524903.473 -9749733.072 673737.439 10 0 59201 4500.00000 0 23378798.441 -9794067.443 -2519000.836 10 0 59201 5400.00000 0 22883328.843 -9647047.785 -5662591.538 10 0 59201 6300.00000 0 22073861.534 -9267292.591 -8695693.451 10 0 59201 7200.00000 0 20995449.488 -8622270.150 -11559123.332 10 0 59201 8100.00000 0 19700869.872 -7689936.311 -14197027.587 10 0 59201 9000.00000 0 18248354.424 -6459931.036 -16557986.077 10 0 59201 9900.00000 0 16699109.656 -4934281.599 -18596024.967 10 0 59201 10800.00000 0 15114733.176 -3127581.622 -20271517.988 10 0 59201 11700.00000 0 13554636.446 -1066637.828 -21551958.118 10 0 59201 12600.00000 0 12073583.519 1210400.672 -22412584.723 10 0 59201 13500.00000 0 10719449.671 3655393.759 -22836854.631 10 0 59201 14400.00000 0 9531293.788 6211985.304 -22816748.997 10 0 59201 15300.00000 0 8537824.499 8817726.958 -22352911.304 10 0 59201 16200.00000 0 7756322.783 11406461.670 -21454615.312 10 0 59201 17100.00000 0 7192064.093 13910867.423 -20139565.084 10 0 59201 18000.00000 0 6838261.859 16265055.317 -18433532.402 10 0 59201 18900.00000 0 6676532.122 18407114.453 -16369839.835 10 0 59201 19800.00000 0 6677857.325 20281498.731 -13988700.532 10 0 59201 20700.00000 0 6804006.576 21841157.507 -11336428.289 10 0 59201 21600.00000 0 7009350.869 23049323.174 -8464533.729 10 0 59201 22500.00000 0 7242995.586 23880883.077 -5428724.262 10 0 59201 23400.00000 0 7451139.797 24323280.542 -2287827.245 10 0 59201 24300.00000 0 7579562.724 24376909.368 897343.112 10 0 59201 25200.00000 0 7576132.831 24054987.048 4065153.710 10 0 59201 26100.00000 0 7393234.333 23382913.339 7154333.413 10 0 59201 27000.00000 0 6990009.586 22397141.967 10105144.911 10 0 59201 27900.00000 0 6334323.527 21143612.989 12860526.011 10 0 59201 28800.00000 0 5404367.977 19675811.238 15367179.386 10 0 59201 29700.00000 0 4189838.350 18052531.397 17576590.986 10 0 59201 30600.00000 0 2692632.873 16335441.991 19445958.636 10 0 59201 31500.00000 0 927043.927 14586548.793 20939013.859 10 0 59201 32400.00000 0 -1080568.247 12865662.070 22026721.942 10 0 59201 33300.00000 0 -3292608.125 11227971.979 22687847.203 10 0 59201 34200.00000 0 -5661551.657 9721832.140 22909372.626 10 0 59201 35100.00000 0 -8131675.677 8386843.029 22686765.380 10 0 59201 36000.00000 0 -10641140.914 7252314.785 22024082.288 10 0 59201 36900.00000 0 -13124344.509 6336173.751 20933911.879 10 0 59201 37800.00000 0 -15514446.424 5644358.954 19437152.538 10 0 59201 38700.00000 0 -17745966.207 5170734.636 17562629.143 10 0 59201 39600.00000 0 -19757342.720 4897523.562 15346553.702 10 0 59201 40500.00000 0 -21493350.218 4796243.951 12831838.611 10 0 59201 41400.00000 0 -22907269.325 4829111.440 10067274.293 10 0 59201 42300.00000 0 -23962720.831 4950847.498 7106586.181 10 0 59201 43200.00000 0 -24635084.029 5110817.868 4007388.836 10 0 59201 44100.00000 0 -24912438.413 5255409.953 830057.646 10 0 59201 45000.00000 0 -24795987.635 5330547.246 -2363459.079 10 0 59201 45900.00000 0 -24299946.773 5284232.447 -5510863.236 10 0 59201 46800.00000 0 -23450897.014 5069009.204 -8550739.713 10 0 59201 47700.00000 0 -22286634.999 4644235.726 -11423772.807 10 0 59201 48600.00000 0 -20854565.944 3978071.459 -14073920.569 10 0 59201 49500.00000 0 -19209709.427 3049090.437 -16449522.443 10 0 59201 50400.00000 0 -17412403.406 1847451.252 -18504317.014 10 0 59201 51300.00000 0 -15525804.765 375572.864 -20198349.118 10 0 59201 52200.00000 0 -13613293.053 -1351713.133 -21498748.187 10 0 59201 53100.00000 0 -11735887.766 -3307540.426 -22380362.719 10 0 59201 54000.00000 0 -9949788.209 -5453900.129 -22826239.185 10 0 59201 54900.00000 0 -8304139.134 -7743009.335 -22827937.048 10 0 59201 55800.00000 0 -6839115.088 -10119098.159 -22385675.092 10 0 59201 56700.00000 0 -5584402.277 -12520540.021 -21508307.683 10 0 59201 57600.00000 0 -4558139.477 -14882235.866 -20213132.939 10 0 59201 58500.00000 0 -3766359.897 -17138152.652 -18525537.953 10 0 59201 59400.00000 0 -3202954.619 -19223910.557 -16478489.232 10 0 59201 60300.00000 0 -2850156.345 -21079311.718 -14111879.237 10 0 59201 61200.00000 0 -2679520.541 -22650706.059 -11471742.518 10 0 59201 62100.00000 0 -2653360.474 -23893096.958 -8609357.108 10 0 59201 63000.00000 0 -2726573.972 -24771900.547 -5580248.811 10 0 59201 63900.00000 0 -2848783.809 -25264286.910 -2443117.700 10 0 59201 64800.00000 0 -2966700.894 -25360048.939 741292.693 10 0 59201 65700.00000 0 -3026610.504 -25061964.115 3911362.123 10 0 59201 66600.00000 0 -2976877.097 -24385635.400 7005774.372 10 0 59201 67500.00000 0 -2770362.673 -23358818.767 9964690.080 10 0 59201 68400.00000 0 -2366657.465 -22020265.917 12730890.048 10 0 59201 69300.00000 0 -1734029.597 -20418130.411 15250868.025 10 0 59201 70200.00000 0 -851012.030 -18608003.219 17475853.094 10 0 59201 71100.00000 0 292440.103 -16650658.581 19362743.122 10 0 59201 72000.00000 0 1694270.970 -14609602.890 20874932.234 10 0 59201 72900.00000 0 3340154.104 -12548527.183 21983017.197 10 0 59201 73800.00000 0 5203840.130 -10528767.749 22665369.620 10 0 59201 74700.00000 0 7248009.969 -8606879.221 22908562.950 10 0 59201 75600.00000 0 9425600.729 -6832420.018 22707645.737 10 0 59201 76500.00000 0 11681551.930 -5246041.570 22066255.022 10 0 59201 77400.00000 0 13954902.010 -3877960.708 20996566.413 10 0 59201 78300.00000 0 16181150.261 -2746879.029 19519080.178 10 0 59201 79200.00000 0 18294787.689 -1859394.873 17662245.620 10 0 59201 80100.00000 0 20231892.359 -1209933.346 15461929.095 10 0 59201 81000.00000 0 21932681.361 -781198.152 12960734.147 10 0 59201 81900.00000 0 23343912.381 -545127.030 10207185.378 10 0 59201 82800.00000 0 24421033.238 -464311.136 7254790.867 10 0 59201 83700.00000 0 25129987.818 -493818.557 4161000.809 10 0 59201 84600.00000 0 25448600.753 -583344.445 986082.706 10 0 59201 85500.00000 0 25367480.784 -679595.779 -2208064.179 10 0 59202 0.00000 0 24890403.280 -728808.179 -5359130.706 10 0 59202 900.00000 0 24034154.353 -679285.668 -8405630.994 10 0 59202 1800.00000 0 22827843.360 -483854.432 -11288119.802 10 0 59202 2700.00000 0 21311711.559 -102122.325 -13950369.686 10 0 59202 3600.00000 0 19535489.015 497552.019 -16340482.351 10 0 59202 4500.00000 0 17556369.265 1336467.113 -18411911.264 10 0 59202 5400.00000 0 15436688.694 2424431.873 -20124374.587 10 0 59202 6300.00000 0 13241409.446 3759113.827 -21444640.180 10 0 59202 7200.00000 0 11035512.879 5325910.161 -22347167.391 10 0 59202 8100.00000 0 8881413.651 7098347.059 -22814593.772 10 0 59202 9000.00000 0 6836502.994 9038990.218 -22838058.236 10 0 59202 9900.00000 0 4950923.607 11100827.672 -22417355.663 10 0 59202 10800.00000 0 3265668.065 13229066.390 -21560921.452 10 0 59202 11700.00000 0 1811078.411 15363266.887 -20285647.795 10 0 59202 12600.00000 0 605807.346 17439726.194 -18616536.705 10 0 59202 13500.00000 0 -343718.311 19394009.608 -16586197.810 10 0 59202 14400.00000 0 -1043312.385 21163525.797 -14234201.646 10 0 59202 15300.00000 0 -1510524.598 22690038.343 -11606301.860 10 0 59202 16200.00000 0 -1773640.165 23922009.916 -8753541.857 10 0 59202 17100.00000 0 -1870228.056 24816682.425 -5731263.450 10 0 59202 18000.00000 0 -1845300.649 25341807.668 -2598036.723 10 0 59202 18900.00000 0 -1749163.409 25476957.679 585468.407 10 0 59202 19800.00000 0 -1635045.720 25214361.392 3757647.670 10 0 59202 20700.00000 0 -1556612.704 24559233.841 6857142.969 10 0 59202 21600.00000 0 -1565462.529 23529584.952 9824016.094 10 0 59202 22500.00000 0 -1708714.047 22155516.356 12600893.982 10 0 59202 23400.00000 0 -2026785.661 20478035.465 15134064.457 10 0 59202 24300.00000 0 -2551458.386 18547435.747 17374502.554 10 0 59202 25200.00000 0 -3304304.320 16421309.655 19278808.768 10 0 59202 26100.00000 0 -4295546.800 14162275.620 20810042.131 10 0 59202 27000.00000 0 -5523400.874 11835512.042 21938432.898 10 0 59202 27900.00000 0 -6973923.227 9506199.083 22641961.604 10 0 59202 28800.00000 0 -8621379.796 7236972.984 22906793.405 10 0 59202 29700.00000 0 -10429118.215 5085497.247 22727559.016 10 0 59202 30600.00000 0 -12350911.414 3102250.513 22107475.987 10 0 59202 31500.00000 0 -14332719.015 1328622.545 21058306.759 10 0 59202 32400.00000 0 -16314795.635 -204602.667 19600152.683 10 0 59202 33300.00000 0 -18234060.244 -1478313.254 17761086.141 10 0 59202 34200.00000 0 -20026629.082 -2485640.118 15576625.973 10 0 59202 35100.00000 0 -21630407.064 -3232007.363 13089064.550 10 0 59202 36000.00000 0 -22987629.149 -3734659.601 10346657.949 10 0 59202 36900.00000 0 -24047244.383 -4021685.439 7402693.905 10 0 59202 37800.00000 0 -24767041.136 -4130578.062 4314455.072 10 0 59202 38700.00000 0 -25115422.411 -4106393.902 1142097.795 10 0 59202 39600.00000 0 -25072754.467 -3999588.026 -2052531.000 10 0 59202 40500.00000 0 -24632230.047 -3863619.226 -5207114.529 10 0 59202 41400.00000 0 -23800208.171 -3752428.151 -8260099.077 10 0 59202 42300.00000 0 -22596015.064 -3717897.535 -11151913.026 10 0 59202 43200.00000 0 -21051214.051 -3807404.598 -13826146.334 10 0 59202 44100.00000 0 -19208375.280 -4061571.633 -16230665.623 10 0 59202 45000.00000 0 -17119397.717 -4512312.142 -18318641.573 10 0 59202 45900.00000 0 -14843455.039 -5181256.834 -20049467.612 10 0 59202 46800.00000 0 -12444652.899 -6078627.191 -21389551.483 10 0 59202 47700.00000 0 -9989497.100 -7202604.688 -22312964.301 10 0 59202 48600.00000 0 -7544279.659 -8539222.357 -22801935.059 10 0 59202 49500.00000 0 -5172492.559 -10062782.901 -22847181.928 10 0 59202 50400.00000 0 -2932377.231 -11736785.083 -22448075.196 10 0 59202 51300.00000 0 -874711.276 -13515318.720 -21612630.155 10 0 59202 52200.00000 0 959076.726 -15344869.016 -20357331.573 10 0 59202 53100.00000 0 2538387.608 -17166453.934 -18706794.591 10 0 59202 54000.00000 0 3844468.101 -18918004.789 -16693269.925 10 0 59202 54900.00000 0 4870923.780 -20536890.389 -14356003.994 10 0 59202 55800.00000 0 5623710.045 -21962479.382 -11740467.223 10 0 59202 56700.00000 0 6120604.424 -23138634.322 -8897465.995 10 0 59202 57600.00000 0 6390184.971 -24016034.069 -5882155.684 10 0 59202 58500.00000 0 6470359.766 -24554228.476 -2752973.932 10 0 59202 59400.00000 0 6406510.969 -24723340.706 429485.408 10 0 59202 60300.00000 0 6249332.492 -24505347.140 3603636.444 10 0 59202 61200.00000 0 6052452.705 -23894882.419 6708081.558 10 0 59202 62100.00000 0 5869942.221 -22899536.695 9682785.976 10 0 59202 63000.00000 0 5753811.235 -21539633.056 12470224.943 10 0 59202 63900.00000 0 5751601.064 -19847494.311 15016482.392 10 0 59202 64800.00000 0 5904170.606 -17866229.160 17272281.149 10 0 59202 65700.00000 0 6243770.214 -15648087.213 19193925.948 10 0 59202 66600.00000 0 6792483.788 -13252449.957 20744142.066 10 0 59202 67500.00000 0 7561104.769 -10743539.401 21892794.259 10 0 59202 68400.00000 0 8548494.109 -8187937.696 22617472.681 10 0 59202 69300.00000 0 9741448.575 -5652018.858 22903934.545 10 0 59202 70200.00000 0 11115086.940 -3199397.454 22746392.755 10 0 59202 71100.00000 0 12633740.351 -888498.697 22147645.098 10 0 59202 72000.00000 0 14252312.204 1229650.063 21119040.306 10 0 59202 72900.00000 0 15918053.279 3113315.208 19680280.039 10 0 59202 73800.00000 0 17572680.185 4731561.288 17859058.768 10 0 59202 74700.00000 0 19154750.228 6065300.854 15690546.636 10 0 59202 75600.00000 0 20602194.355 7107845.312 13216723.459 10 0 59202 76500.00000 0 21854902.330 7864932.987 10485575.208 10 0 59202 77400.00000 0 22857251.105 8354232.523 7550167.481 10 0 59202 78300.00000 0 23560468.978 8604342.168 4467613.386 10 0 59202 79200.00000 0 23924734.297 8653327.094 1297955.898 10 0 59202 80100.00000 0 23920918.232 8546857.050 -1897012.769 10 0 59202 81000.00000 0 23531895.970 8336024.177 -5054970.604 10 0 59202 81900.00000 0 22753369.034 8074934.987 -8114298.691 10 0 59202 82800.00000 0 21594162.418 7818180.494 -11015301.456 10 0 59202 83700.00000 0 20075982.901 7618293.970 -13701388.612 10 0 59202 84600.00000 0 18232648.254 7523306.332 -16120193.891 10 0 59202 85500.00000 0 16108819.907 7574504.783 -18224607.205 99